Location: Sternwarte_Laufen
(47.9344°N, 12.9346°E)
Time: 07:15:17
(UTC+01:00)

ISS - Pass Details

Date: 12 November 2018
Orbit: 401 x 409 km, 51.6° (Epoch: 21 November)

Event Time Altitude Azimuth Distance (km) Brightness Sun altitude
Exits shadow 05:51:18 23° 257° (WSW) 927 -2.6 -13.2°
Maximum altitude 05:52:34 30° 216° (SW) 747 -2.7 -13.0°
Drops below altitude 10° 05:55:30 10° 153° (SSE) 1,459 -0.4 -12.5°
Sets 05:57:43 0° 142° (SE) 2,317 0.9 -12.2°
